AFR217 VABB-LFPG

Flight info

Callsign AFR217
Flight time N/A
Altitude 36000
Route ANOL2AXISRIS/27 ANOLI2A ISRIS G208 APANO G451 AAE Z8 VIKIT P628 RK G202 HILAL/N0496F380 G202 ZB L750 RANAH B801 NINOP B475 DOLOS B449 ETRAP B447 KRS B143 TUNEK A909 RODAR M11 ERLEV/N0492F400 L850 ADEKI N644 TETRO M10 SARPI UM10 OLUPO UL851 KARDE UN644 SIN UW90 INB UL746 ODERO DCT OPT DCT SOKRU DCT ABETI DCT TAGAS DCT RENKA L610 STAUB/N0464F240 L610 MAMOR DCT ASPAT DCT VIBOM DCT BETEX DCT IDOSA DCT TOLVU/N0492F410 DCT RAPOR DCT VEDUS
Aircraft A359/H-SDE2E3GHIJ3J4J5LM1ORWXY/LB1D1

Departure

Time N/A
Airport Chhatrapati Shivaji Maharaj International Airport (VABB)

Arrival

Time 2026-05-06 15:37
Airport Charles de Gaulle International Airport (LFPG)
Time Latitude Longitude Altitude Speed Heading
2026-05-06 07:19 24.44248 72.32412 35868 ft 463 kts 343°
2026-05-06 07:19 24.47404 72.31711 35869 ft 463 kts 343°
2026-05-06 07:20 24.53719 72.30305 35861 ft 463 kts 343°
2026-05-06 07:20 24.59771 72.28957 35863 ft 462 kts 343°
2026-05-06 07:21 24.66076 72.27550 35864 ft 462 kts 343°
2026-05-06 07:21 24.72373 72.26144 35862 ft 461 kts 342°
2026-05-06 07:22 24.78661 72.24740 35858 ft 461 kts 342°
2026-05-06 07:22 24.84910 72.23356 35855 ft 461 kts 343°
2026-05-06 07:23 24.91196 72.21961 35851 ft 461 kts 342°
2026-05-06 07:23 24.97480 72.20564 35851 ft 460 kts 342°
2026-05-06 07:24 25.03847 72.19565 35848 ft 464 kts 347°
2026-05-06 07:24 25.10246 72.18814 35845 ft 465 kts 348°
2026-05-06 07:25 25.16664 72.18098 35841 ft 464 kts 348°
2026-05-06 07:25 25.23097 72.17376 35842 ft 464 kts 347°
2026-05-06 07:26 25.29525 72.16647 35837 ft 464 kts 347°
2026-05-06 07:26 25.35934 72.15916 35838 ft 463 kts 347°
2026-05-06 07:27 25.42297 72.15189 35836 ft 463 kts 347°
2026-05-06 07:27 25.48697 72.14457 35834 ft 462 kts 347°
2026-05-06 07:28 25.55091 72.13726 35833 ft 462 kts 347°
2026-05-06 07:28 25.64691 72.12627 35830 ft 461 kts 347°
2026-05-06 07:29 25.71032 72.11905 35828 ft 461 kts 347°
2026-05-06 07:29 25.77417 72.11191 35826 ft 461 kts 347°
2026-05-06 07:30 25.83794 72.10474 35825 ft 461 kts 347°
2026-05-06 07:30 25.90129 72.09761 35825 ft 460 kts 347°
2026-05-06 07:31 25.96501 72.09043 35818 ft 460 kts 347°
2026-05-06 07:31 26.02870 72.08326 35818 ft 460 kts 348°
2026-05-06 07:32 26.09242 72.07607 35818 ft 460 kts 348°
2026-05-06 07:32 26.15563 72.06893 35821 ft 459 kts 348°
2026-05-06 07:33 26.21917 72.06175 35817 ft 459 kts 348°
2026-05-06 07:33 26.28278 72.05455 35811 ft 459 kts 348°
2026-05-06 07:34 26.34629 72.04736 35810 ft 459 kts 348°
2026-05-06 07:34 26.40937 72.04021 35811 ft 459 kts 348°
2026-05-06 07:35 26.47284 72.03300 35808 ft 458 kts 348°
2026-05-06 07:35 26.53626 72.02579 35808 ft 458 kts 348°
2026-05-06 07:36 26.59963 72.01858 35809 ft 458 kts 348°
2026-05-06 07:36 26.66264 72.01140 35807 ft 458 kts 348°
2026-05-06 07:37 26.72600 72.00418 35804 ft 458 kts 348°
2026-05-06 07:37 26.78937 71.99694 35802 ft 457 kts 348°
2026-05-06 07:38 26.85266 71.98971 35800 ft 457 kts 348°
2026-05-06 07:38 26.91548 71.98253 35799 ft 457 kts 348°
2026-05-06 07:39 26.97875 71.97527 35798 ft 457 kts 348°
2026-05-06 07:39 27.04198 71.96802 35805 ft 457 kts 348°
2026-05-06 07:40 27.10522 71.96076 35801 ft 457 kts 348°
2026-05-06 07:40 27.16800 71.95354 35801 ft 456 kts 348°
2026-05-06 07:41 27.23119 71.94628 35801 ft 456 kts 348°
2026-05-06 07:41 27.29432 71.93900 35799 ft 456 kts 348°
2026-05-06 07:42 27.35744 71.93172 35798 ft 456 kts 348°
2026-05-06 07:42 27.42063 71.92442 35796 ft 456 kts 348°
2026-05-06 07:43 27.48335 71.91717 35801 ft 456 kts 348°
2026-05-06 07:43 27.54626 71.90943 35795 ft 454 kts 345°
2026-05-06 07:44 27.60593 71.88954 35797 ft 442 kts 330°
2026-05-06 07:44 27.65666 71.85201 35796 ft 434 kts 315°
2026-05-06 07:45 27.69453 71.80012 35794 ft 432 kts 301°
2026-05-06 07:45 27.72366 71.74072 35793 ft 433 kts 298°
2026-05-06 07:46 27.75147 71.68042 35794 ft 433 kts 298°
2026-05-06 07:46 27.77939 71.62007 35793 ft 433 kts 298°
2026-05-06 07:47 27.80729 71.56033 35794 ft 433 kts 298°
2026-05-06 07:47 27.83550 71.50012 35791 ft 433 kts 298°
2026-05-06 07:48 27.86365 71.43998 35788 ft 433 kts 298°
2026-05-06 07:48 27.89138 71.37947 35790 ft 433 kts 297°
2026-05-06 07:49 27.91757 71.31869 35792 ft 433 kts 297°
2026-05-06 07:49 27.94383 71.25740 35795 ft 433 kts 297°
2026-05-06 07:50 27.97029 71.19618 35790 ft 433 kts 297°
2026-05-06 07:50 27.99686 71.13495 35796 ft 433 kts 297°
2026-05-06 07:51 28.02320 71.07421 35789 ft 433 kts 297°
2026-05-06 07:51 28.04968 71.01302 35791 ft 433 kts 297°
2026-05-06 07:52 28.07611 70.95186 35791 ft 432 kts 297°
2026-05-06 07:52 28.10249 70.89068 35793 ft 432 kts 297°
2026-05-06 07:53 28.12868 70.82987 35792 ft 432 kts 297°
2026-05-06 07:53 28.15500 70.76867 35793 ft 432 kts 297°
2026-05-06 07:54 28.18130 70.70742 35794 ft 432 kts 297°
2026-05-06 07:54 28.20760 70.64608 35794 ft 432 kts 297°
2026-05-06 07:55 28.23365 70.58521 35790 ft 432 kts 297°
2026-05-06 07:55 28.25988 70.52386 35789 ft 432 kts 297°
2026-05-06 07:56 28.28604 70.46256 35791 ft 432 kts 297°
2026-05-06 07:56 28.31218 70.40120 35790 ft 432 kts 297°
2026-05-06 07:57 28.34063 70.34187 35794 ft 431 kts 305°
2026-05-06 07:57 28.38089 70.29177 35789 ft 432 kts 319°
2026-05-06 07:58 28.43286 70.25669 35789 ft 440 kts 334°
2026-05-06 07:58 28.49197 70.23675 35788 ft 446 kts 340°
2026-05-06 07:59 28.55194 70.22020 35785 ft 447 kts 341°
2026-05-06 07:59 28.61236 70.20370 35786 ft 447 kts 341°
2026-05-06 08:00 28.67271 70.18685 35784 ft 447 kts 341°
2026-05-06 08:00 28.73301 70.16979 35783 ft 447 kts 340°
2026-05-06 08:01 28.79338 70.15265 35786 ft 447 kts 340°
2026-05-06 08:01 28.85333 70.13562 35785 ft 447 kts 341°
2026-05-06 08:02 28.91369 70.11847 35783 ft 447 kts 341°
2026-05-06 08:02 28.97409 70.10129 35785 ft 447 kts 341°
2026-05-06 08:03 29.03450 70.08408 35784 ft 447 kts 341°
2026-05-06 08:03 29.09447 70.06698 35784 ft 448 kts 340°
2026-05-06 08:04 29.15495 70.04971 35785 ft 447 kts 340°
2026-05-06 08:04 29.21536 70.03245 35788 ft 447 kts 340°
2026-05-06 08:05 29.27578 70.01515 35791 ft 448 kts 340°
2026-05-06 08:05 29.33625 69.99783 35793 ft 448 kts 340°
2026-05-06 08:06 29.39631 69.98060 35798 ft 448 kts 340°
2026-05-06 08:06 29.45683 69.96321 35804 ft 448 kts 340°
2026-05-06 08:07 29.51733 69.94582 35806 ft 448 kts 340°
2026-05-06 08:07 29.57755 69.92849 35809 ft 449 kts 340°
2026-05-06 08:08 29.63808 69.91103 35815 ft 449 kts 340°
2026-05-06 08:08 29.68848 69.89648 35815 ft 449 kts 340°
2026-05-06 08:09 29.75924 69.87602 35830 ft 449 kts 340°
2026-05-06 08:09 29.81949 69.85858 35834 ft 449 kts 340°
2026-05-06 08:10 29.88003 69.84104 35832 ft 449 kts 340°
2026-05-06 08:10 29.94063 69.82347 35840 ft 449 kts 340°
2026-05-06 08:11 29.99101 69.80884 35845 ft 449 kts 340°
2026-05-06 08:11 30.05150 69.79125 35847 ft 449 kts 340°
2026-05-06 08:12 30.12189 69.77075 35850 ft 449 kts 340°
2026-05-06 08:12 30.17263 69.75598 35844 ft 449 kts 340°
2026-05-06 08:13 30.23275 69.73843 35931 ft 448 kts 340°
2026-05-06 08:13 30.26286 69.72967 36270 ft 445 kts 341°
2026-05-06 08:13 30.29289 69.72173 36657 ft 442 kts 342°
2026-05-06 08:14 30.32295 69.71447 36951 ft 440 kts 342°
2026-05-06 08:14 30.35298 69.70745 37196 ft 439 kts 343°
2026-05-06 08:14 30.38293 69.70045 37406 ft 438 kts 342°
2026-05-06 08:14 30.41275 69.69339 37633 ft 437 kts 342°
2026-05-06 08:15 30.44246 69.68624 37810 ft 438 kts 342°
2026-05-06 08:15 30.47243 69.67893 37842 ft 441 kts 342°
2026-05-06 08:15 30.53211 69.66424 37845 ft 442 kts 342°
2026-05-06 08:16 30.59217 69.64945 37845 ft 441 kts 342°
2026-05-06 08:16 30.65225 69.63465 37845 ft 441 kts 342°
2026-05-06 08:17 30.71236 69.61983 37857 ft 442 kts 342°
2026-05-06 08:17 30.77207 69.60510 37852 ft 441 kts 342°
2026-05-06 08:18 30.83217 69.59024 37856 ft 442 kts 342°
2026-05-06 08:18 30.89223 69.57536 37852 ft 441 kts 342°
2026-05-06 08:19 30.95188 69.56057 37862 ft 441 kts 342°
2026-05-06 08:19 31.01191 69.54567 37862 ft 441 kts 342°
2026-05-06 08:20 31.07193 69.53076 37861 ft 441 kts 342°
2026-05-06 08:20 31.13178 69.51588 37862 ft 441 kts 342°
2026-05-06 08:21 31.19180 69.50092 37859 ft 441 kts 342°
2026-05-06 08:21 31.25184 69.48593 37858 ft 441 kts 342°
2026-05-06 08:22 31.31057 69.46832 37860 ft 435 kts 334°
2026-05-06 08:22 31.36322 69.43567 37854 ft 426 kts 320°
2026-05-06 08:23 31.40542 69.38777 37850 ft 423 kts 309°
2026-05-06 08:23 31.44239 69.33408 37851 ft 423 kts 307°
2026-05-06 08:24 31.47864 69.27969 37846 ft 424 kts 307°
2026-05-06 08:24 31.51480 69.22570 37847 ft 424 kts 308°
2026-05-06 08:25 31.55139 69.17141 37861 ft 424 kts 308°
2026-05-06 08:25 31.58798 69.11713 37862 ft 424 kts 308°
2026-05-06 08:26 31.62458 69.06277 37866 ft 424 kts 308°
2026-05-06 08:26 31.66085 69.00880 37865 ft 424 kts 308°
2026-05-06 08:27 31.69797 68.95500 37872 ft 424 kts 309°
2026-05-06 08:27 31.73625 68.90214 37878 ft 425 kts 309°
2026-05-06 08:28 31.77447 68.84927 37877 ft 425 kts 309°
2026-05-06 08:28 31.81229 68.79646 37877 ft 425 kts 309°
2026-05-06 08:29 31.85027 68.74314 37886 ft 425 kts 309°
2026-05-06 08:29 31.88819 68.68981 37897 ft 425 kts 309°
2026-05-06 08:30 31.92614 68.63635 37898 ft 426 kts 309°
2026-05-06 08:30 31.96405 68.58288 37904 ft 425 kts 309°
2026-05-06 08:31 32.00171 68.52972 37909 ft 425 kts 309°
2026-05-06 08:31 32.03957 68.47619 37913 ft 425 kts 309°
2026-05-06 08:32 32.07744 68.42258 37918 ft 425 kts 309°
2026-05-06 08:32 32.11519 68.36903 37920 ft 425 kts 309°
2026-05-06 08:33 32.15278 68.31566 37920 ft 425 kts 309°
2026-05-06 08:33 32.19056 68.26193 37923 ft 426 kts 309°
2026-05-06 08:34 32.24722 68.18123 37926 ft 426 kts 309°
2026-05-06 08:35 32.28504 68.12726 37919 ft 426 kts 309°
2026-05-06 08:35 32.32252 68.07369 37915 ft 426 kts 309°
2026-05-06 08:36 32.36025 68.01970 37918 ft 426 kts 309°
2026-05-06 08:36 32.39804 67.96554 37911 ft 427 kts 309°
2026-05-06 08:37 32.43579 67.91136 37908 ft 427 kts 309°
2026-05-06 08:37 32.47332 67.85743 37908 ft 427 kts 308°
2026-05-06 08:38 32.51110 67.80310 37907 ft 428 kts 309°
2026-05-06 08:38 32.55034 67.74998 37903 ft 429 kts 311°
2026-05-06 08:39 32.59033 67.69747 37902 ft 429 kts 311°
2026-05-06 08:39 32.63017 67.64470 37902 ft 429 kts 310°
2026-05-06 08:40 32.66953 67.59203 37908 ft 430 kts 310°
2026-05-06 08:40 32.70911 67.53885 37909 ft 430 kts 310°
2026-05-06 08:41 32.74866 67.48563 37914 ft 430 kts 310°
2026-05-06 08:41 32.78817 67.43225 37919 ft 430 kts 309°
2026-05-06 08:42 32.82650 67.37777 37929 ft 430 kts 308°
2026-05-06 08:42 32.86422 67.32317 37936 ft 430 kts 308°
2026-05-06 08:43 32.90233 67.26828 37960 ft 430 kts 309°
2026-05-06 08:43 32.94055 67.21346 37969 ft 431 kts 309°
2026-05-06 08:44 32.97882 67.15857 37981 ft 431 kts 308°
2026-05-06 08:44 33.01686 67.10391 38002 ft 432 kts 308°
2026-05-06 08:45 33.05511 67.04886 38005 ft 430 kts 308°
2026-05-06 08:45 33.09320 66.99395 38019 ft 430 kts 308°
2026-05-06 08:46 33.13127 66.93900 38025 ft 429 kts 308°
2026-05-06 08:46 33.16905 66.88435 38025 ft 430 kts 308°
2026-05-06 08:47 33.20707 66.82929 38023 ft 430 kts 308°
2026-05-06 08:47 33.24514 66.77408 38026 ft 431 kts 308°
2026-05-06 08:48 33.28328 66.71870 38013 ft 431 kts 308°
2026-05-06 08:48 33.32136 66.66332 38016 ft 431 kts 308°
2026-05-06 08:49 33.35911 66.60833 38003 ft 431 kts 308°
2026-05-06 08:49 33.39712 66.55283 37991 ft 431 kts 308°
2026-05-06 08:50 33.43532 66.49707 37983 ft 436 kts 308°
2026-05-06 08:50 33.47397 66.44051 37979 ft 442 kts 308°
2026-05-06 08:51 33.51298 66.38313 37974 ft 446 kts 308°
2026-05-06 08:51 33.55183 66.32572 37977 ft 447 kts 308°
2026-05-06 08:52 33.59107 66.26770 37981 ft 448 kts 308°
2026-05-06 08:52 33.62985 66.21032 37986 ft 437 kts 308°
2026-05-06 08:53 33.66788 66.15398 37995 ft 433 kts 308°
2026-05-06 08:53 33.70550 66.09815 37996 ft 433 kts 308°
2026-05-06 08:54 33.74334 66.04188 38005 ft 433 kts 308°
2026-05-06 08:54 33.78130 65.98538 38017 ft 434 kts 308°
2026-05-06 08:55 33.81925 65.92880 38025 ft 434 kts 308°
2026-05-06 08:55 33.85717 65.87219 38029 ft 434 kts 308°
2026-05-06 08:56 33.89474 65.81598 38037 ft 435 kts 308°
2026-05-06 08:56 33.93269 65.75911 38046 ft 436 kts 308°
2026-05-06 08:57 33.97067 65.70213 38050 ft 436 kts 308°
2026-05-06 08:57 34.00865 65.64504 38060 ft 437 kts 307°
2026-05-06 08:58 34.04661 65.58793 38064 ft 437 kts 307°
2026-05-06 08:58 34.08435 65.53111 38070 ft 437 kts 307°
2026-05-06 08:59 34.12240 65.47383 38073 ft 438 kts 307°
2026-05-06 08:59 34.16041 65.41646 38077 ft 437 kts 307°
2026-05-06 09:00 34.19838 65.35908 38072 ft 437 kts 307°
2026-05-06 09:00 34.23631 65.30170 38079 ft 437 kts 307°
2026-05-06 09:01 34.27396 65.24464 38076 ft 437 kts 307°
2026-05-06 09:01 34.31185 65.18713 38075 ft 438 kts 307°
2026-05-06 09:02 34.34976 65.12950 38072 ft 438 kts 307°
2026-05-06 09:02 34.38769 65.07172 38081 ft 438 kts 307°
2026-05-06 09:03 34.42531 65.01434 38076 ft 438 kts 307°
2026-05-06 09:03 34.46316 64.95653 38083 ft 438 kts 307°
2026-05-06 09:04 34.50094 64.89873 38074 ft 438 kts 307°
2026-05-06 09:04 34.53877 64.84068 38081 ft 438 kts 307°
2026-05-06 09:05 34.57620 64.78300 38085 ft 438 kts 307°
2026-05-06 09:05 34.61391 64.72486 38088 ft 439 kts 307°
2026-05-06 09:06 34.65164 64.66658 38086 ft 439 kts 307°
2026-05-06 09:06 34.68938 64.60820 38094 ft 439 kts 307°
2026-05-06 09:07 34.72710 64.54976 38090 ft 440 kts 307°
2026-05-06 09:07 34.76455 64.49164 38088 ft 440 kts 306°
2026-05-06 09:08 34.80231 64.43298 38073 ft 440 kts 306°
2026-05-06 09:08 34.84000 64.37431 38065 ft 440 kts 306°
2026-05-06 09:09 34.87765 64.31559 38058 ft 440 kts 306°
2026-05-06 09:09 34.91507 64.25715 38046 ft 440 kts 306°
2026-05-06 09:10 34.95270 64.19828 38033 ft 441 kts 306°
2026-05-06 09:10 34.99036 64.13923 38028 ft 441 kts 306°
2026-05-06 09:11 35.02798 64.08013 38010 ft 442 kts 306°
2026-05-06 09:11 35.06542 64.02125 37988 ft 442 kts 306°
2026-05-06 09:12 35.10306 63.96197 37983 ft 442 kts 306°
2026-05-06 09:12 35.14069 63.90264 37993 ft 442 kts 306°
2026-05-06 09:13 35.17828 63.84325 37988 ft 442 kts 306°
2026-05-06 09:13 35.21583 63.78380 37965 ft 442 kts 306°
2026-05-06 09:14 35.25315 63.72469 37958 ft 442 kts 306°
2026-05-06 09:14 35.29068 63.66509 37944 ft 442 kts 306°
2026-05-06 09:15 35.32826 63.60547 37937 ft 442 kts 306°
2026-05-06 09:15 35.36577 63.54603 37922 ft 441 kts 306°
2026-05-06 09:16 35.40312 63.48677 37915 ft 442 kts 305°
2026-05-06 09:16 35.44066 63.42710 37905 ft 443 kts 305°
2026-05-06 09:17 35.47827 63.36722 37901 ft 443 kts 305°
2026-05-06 09:17 35.51587 63.30727 37889 ft 443 kts 305°
2026-05-06 09:18 35.55323 63.24776 37885 ft 444 kts 306°
2026-05-06 09:18 35.59762 63.19480 37883 ft 450 kts 320°
2026-05-06 09:19 35.65200 63.15566 37877 ft 455 kts 328°
2026-05-06 09:19 35.70862 63.12030 37873 ft 457 kts 329°
2026-05-06 09:20 35.76513 63.08555 37871 ft 457 kts 329°
2026-05-06 09:20 35.82194 63.05025 37870 ft 457 kts 328°
2026-05-06 09:21 35.87872 63.01467 37871 ft 458 kts 328°
2026-05-06 09:21 35.93551 62.97895 37870 ft 458 kts 328°
2026-05-06 09:22 35.99235 62.94316 37867 ft 459 kts 328°
2026-05-06 09:22 36.04880 62.90757 37871 ft 459 kts 328°
2026-05-06 09:23 36.10578 62.87159 37871 ft 460 kts 328°
2026-05-06 09:23 36.16275 62.83556 37869 ft 460 kts 328°
2026-05-06 09:24 36.21985 62.79941 37869 ft 461 kts 328°
2026-05-06 09:24 36.27696 62.76318 37867 ft 462 kts 328°
2026-05-06 09:25 36.33372 62.72710 37869 ft 462 kts 328°
2026-05-06 09:25 36.39103 62.69062 37869 ft 463 kts 328°
2026-05-06 09:26 36.44831 62.65409 37866 ft 463 kts 328°
2026-05-06 09:26 36.50572 62.61742 37862 ft 464 kts 328°
2026-05-06 09:27 36.56274 62.58093 37858 ft 464 kts 328°
2026-05-06 09:27 36.62017 62.54412 37857 ft 464 kts 328°
2026-05-06 09:28 36.67761 62.50725 37858 ft 465 kts 328°
2026-05-06 09:28 36.73517 62.47024 37852 ft 465 kts 328°
2026-05-06 09:29 36.79235 62.43340 37853 ft 466 kts 328°
2026-05-06 09:29 36.84996 62.39623 37849 ft 466 kts 328°
2026-05-06 09:30 36.90762 62.35897 37847 ft 467 kts 328°
2026-05-06 09:30 36.96535 62.32158 37829 ft 467 kts 328°
2026-05-06 09:31 37.02271 62.28438 37848 ft 468 kts 328°
2026-05-06 09:31 37.08046 62.24687 37828 ft 468 kts 328°
2026-05-06 09:32 37.13823 62.20927 37834 ft 468 kts 328°
2026-05-06 09:32 37.19608 62.17156 37830 ft 469 kts 328°
2026-05-06 09:33 37.25396 62.13375 37831 ft 469 kts 328°
2026-05-06 09:33 37.31142 62.09617 37835 ft 469 kts 328°
2026-05-06 09:34 37.36929 62.05824 37820 ft 469 kts 328°
2026-05-06 09:34 37.42722 62.02021 37824 ft 469 kts 328°
2026-05-06 09:35 37.48473 61.98239 37811 ft 470 kts 328°
2026-05-06 09:35 37.54256 61.94413 37801 ft 469 kts 327°
2026-05-06 09:36 37.59439 61.89584 37800 ft 460 kts 311°
2026-05-06 09:36 37.63196 61.83184 37805 ft 453 kts 295°
2026-05-06 09:37 37.65380 61.75832 37803 ft 450 kts 285°
2026-05-06 09:37 37.67130 61.68242 37809 ft 451 kts 284°
2026-05-06 09:38 37.68835 61.60625 37810 ft 451 kts 284°
2026-05-06 09:38 37.70563 61.53022 37813 ft 450 kts 284°
2026-05-06 09:39 37.72303 61.45432 37811 ft 450 kts 284°
2026-05-06 09:39 37.74034 61.37883 37815 ft 450 kts 284°
2026-05-06 09:40 37.75770 61.30283 37810 ft 450 kts 284°
2026-05-06 09:40 37.78361 61.18879 37808 ft 450 kts 284°
2026-05-06 09:41 37.80081 61.11278 37804 ft 449 kts 284°
2026-05-06 09:41 37.81782 61.03737 37803 ft 449 kts 284°
2026-05-06 09:42 37.83490 60.96142 37801 ft 449 kts 284°
2026-05-06 09:42 37.85191 60.88548 37797 ft 448 kts 284°
2026-05-06 09:43 37.86887 60.80953 37798 ft 448 kts 284°
2026-05-06 09:43 37.88575 60.73369 37794 ft 448 kts 284°
2026-05-06 09:44 37.90247 60.65833 37799 ft 447 kts 284°
2026-05-06 09:44 37.91922 60.58256 37794 ft 447 kts 284°
2026-05-06 09:45 37.93591 60.50681 37793 ft 446 kts 284°
2026-05-06 09:45 37.95255 60.43106 37792 ft 446 kts 283°
2026-05-06 09:46 37.96913 60.35532 37791 ft 446 kts 283°
2026-05-06 09:46 37.98553 60.28015 37784 ft 446 kts 283°
2026-05-06 09:47 38.00198 60.20443 37785 ft 445 kts 283°
2026-05-06 09:47 38.01846 60.12879 37785 ft 446 kts 283°
2026-05-06 09:48 38.03478 60.05289 37783 ft 445 kts 283°
2026-05-06 09:48 38.05088 59.97755 37785 ft 445 kts 283°
2026-05-06 09:49 38.06707 59.90170 37780 ft 445 kts 283°
2026-05-06 09:49 38.08323 59.82582 37777 ft 446 kts 283°
2026-05-06 09:50 38.09938 59.74982 37772 ft 446 kts 283°
2026-05-06 09:50 38.11536 59.67432 37775 ft 446 kts 283°
2026-05-06 09:51 38.13139 59.59829 37773 ft 446 kts 283°
2026-05-06 09:51 38.14736 59.52235 37769 ft 445 kts 283°
2026-05-06 09:52 38.16328 59.44632 37773 ft 445 kts 283°
2026-05-06 09:52 38.17903 59.37083 37771 ft 445 kts 283°
2026-05-06 09:53 38.19483 59.29490 37766 ft 445 kts 283°
2026-05-06 09:53 38.21059 59.21882 37768 ft 445 kts 282°
2026-05-06 09:54 38.22629 59.14279 37764 ft 444 kts 282°
2026-05-06 09:54 38.24183 59.06726 37768 ft 444 kts 282°
2026-05-06 09:55 38.25743 58.99121 37766 ft 444 kts 282°
2026-05-06 09:55 38.27297 58.91513 37768 ft 444 kts 282°
2026-05-06 09:56 38.28847 58.83900 37771 ft 444 kts 282°
2026-05-06 09:56 38.30393 58.76276 37768 ft 445 kts 282°
2026-05-06 09:57 38.31923 58.68707 37766 ft 445 kts 282°
2026-05-06 09:57 38.33459 58.61082 37773 ft 444 kts 282°
2026-05-06 09:58 38.34986 58.53471 37765 ft 444 kts 281°
2026-05-06 09:58 38.36510 58.45846 37773 ft 443 kts 281°
2026-05-06 09:59 38.38026 58.38238 37769 ft 443 kts 281°
2026-05-06 09:59 38.39538 58.30685 37767 ft 443 kts 282°
2026-05-06 10:00 38.41752 58.23316 37776 ft 446 kts 289°
2026-05-06 10:00 38.44280 58.16088 37774 ft 446 kts 290°
2026-05-06 10:01 38.46851 58.08882 37779 ft 446 kts 290°
2026-05-06 10:01 38.49409 58.01674 37782 ft 446 kts 290°
2026-05-06 10:02 38.51937 57.94500 37784 ft 446 kts 290°
2026-05-06 10:02 38.54468 57.87286 37787 ft 446 kts 289°
2026-05-06 10:03 38.56998 57.80057 37787 ft 445 kts 289°
2026-05-06 10:03 38.59521 57.72833 37789 ft 445 kts 289°
2026-05-06 10:04 38.62026 57.65639 37794 ft 446 kts 289°
2026-05-06 10:04 38.64278 57.58278 37797 ft 444 kts 285°
2026-05-06 10:05 38.66309 57.50817 37795 ft 444 kts 285°
2026-05-06 10:05 38.68367 57.43355 37804 ft 445 kts 285°
2026-05-06 10:06 38.70470 57.35908 37804 ft 445 kts 285°
2026-05-06 10:06 38.72572 57.28514 37810 ft 445 kts 285°
2026-05-06 10:07 38.74682 57.21076 37804 ft 444 kts 285°
2026-05-06 10:07 38.76786 57.13627 37815 ft 444 kts 285°
2026-05-06 10:08 38.78869 57.06228 37818 ft 444 kts 285°
2026-05-06 10:08 38.80959 56.98778 37817 ft 444 kts 285°
2026-05-06 10:09 38.83046 56.91320 37820 ft 444 kts 285°
2026-05-06 10:09 38.85127 56.83862 37826 ft 444 kts 285°
2026-05-06 10:10 38.87205 56.76396 37824 ft 445 kts 285°
2026-05-06 10:10 38.89265 56.68972 37819 ft 445 kts 285°
2026-05-06 10:11 38.91336 56.61489 37823 ft 445 kts 285°
2026-05-06 10:11 38.93401 56.54004 37824 ft 445 kts 284°
2026-05-06 10:12 38.95463 56.46508 37828 ft 445 kts 284°
2026-05-06 10:12 38.97502 56.39073 37829 ft 444 kts 284°
2026-05-06 10:13 38.99553 56.31572 37829 ft 444 kts 284°
2026-05-06 10:13 39.01502 56.24052 37829 ft 442 kts 282°
2026-05-06 10:14 39.03190 56.16452 37834 ft 442 kts 281°
2026-05-06 10:14 39.04863 56.08841 37839 ft 442 kts 281°
2026-05-06 10:15 39.06559 56.01307 37837 ft 442 kts 281°
2026-05-06 10:15 39.08285 55.93715 37839 ft 442 kts 281°
2026-05-06 10:16 39.10009 55.86122 37838 ft 441 kts 281°
2026-05-06 10:16 39.11722 55.78549 37845 ft 441 kts 281°
2026-05-06 10:17 39.13417 55.71021 37843 ft 440 kts 281°
2026-05-06 10:17 39.15116 55.63447 37844 ft 440 kts 281°
2026-05-06 10:18 39.16808 55.55880 37841 ft 439 kts 281°
2026-05-06 10:18 39.18496 55.48316 37849 ft 439 kts 281°
2026-05-06 10:19 39.20157 55.40811 37843 ft 439 kts 281°
2026-05-06 10:19 39.21827 55.33245 37847 ft 438 kts 281°
2026-05-06 10:20 39.23490 55.25688 37845 ft 438 kts 281°
2026-05-06 10:20 39.25150 55.18126 37849 ft 438 kts 281°
2026-05-06 10:21 39.26792 55.10618 37848 ft 438 kts 280°
2026-05-06 10:21 39.28438 55.03062 37848 ft 438 kts 280°
2026-05-06 10:22 39.30081 54.95496 37843 ft 438 kts 280°
2026-05-06 10:22 39.31720 54.87927 37847 ft 437 kts 280°
2026-05-06 10:23 39.33354 54.80351 37850 ft 438 kts 280°
2026-05-06 10:23 39.34974 54.72811 37845 ft 438 kts 280°
2026-05-06 10:24 39.36600 54.65222 37849 ft 439 kts 280°
2026-05-06 10:24 39.38224 54.57615 37849 ft 439 kts 280°
2026-05-06 10:25 39.39843 54.50002 37851 ft 439 kts 280°
2026-05-06 10:25 39.41456 54.42391 37864 ft 439 kts 279°
2026-05-06 10:26 39.43056 54.34816 37857 ft 439 kts 279°
2026-05-06 10:26 39.44661 54.27190 37859 ft 440 kts 279°
2026-05-06 10:27 39.46262 54.19554 37858 ft 440 kts 279°
2026-05-06 10:27 39.47861 54.11906 37860 ft 440 kts 279°
2026-05-06 10:28 39.49605 54.04357 37859 ft 445 kts 285°
2026-05-06 10:28 39.52614 53.97252 37857 ft 456 kts 296°
2026-05-06 10:29 39.56224 53.90474 37865 ft 458 kts 298°
2026-05-06 10:29 39.59920 53.83738 37863 ft 458 kts 298°
2026-05-06 10:30 39.63576 53.77031 37870 ft 458 kts 298°
2026-05-06 10:30 39.67228 53.70268 37874 ft 458 kts 297°
2026-05-06 10:31 39.70874 53.63484 37861 ft 458 kts 297°
2026-05-06 10:31 39.74516 53.56690 37891 ft 458 kts 297°
2026-05-06 10:32 39.78154 53.49893 37883 ft 459 kts 297°
2026-05-06 10:32 39.81774 53.43117 37888 ft 459 kts 297°
2026-05-06 10:33 39.85413 53.36291 37889 ft 459 kts 297°
2026-05-06 10:33 39.89053 53.29446 37898 ft 460 kts 297°
2026-05-06 10:34 39.92690 53.22593 37906 ft 460 kts 297°
2026-05-06 10:34 39.96326 53.15727 37911 ft 461 kts 297°
2026-05-06 10:35 39.99940 53.08888 37905 ft 461 kts 297°
2026-05-06 10:35 40.03574 53.01998 37913 ft 462 kts 297°
2026-05-06 10:36 40.07223 52.95091 37918 ft 462 kts 297°
2026-05-06 10:36 40.10868 52.88194 37913 ft 462 kts 297°
2026-05-06 10:37 40.13899 52.82447 37913 ft 462 kts 297°
2026-05-06 10:37 40.18129 52.74405 37924 ft 462 kts 297°
2026-05-06 10:38 40.21150 52.68650 37926 ft 462 kts 297°
2026-05-06 10:38 40.24720 52.61690 37937 ft 458 kts 293°
2026-05-06 10:39 40.27170 52.54169 37945 ft 444 kts 280°
2026-05-06 10:39 40.29013 52.45103 37945 ft 443 kts 278°
2026-05-06 10:40 40.30234 52.38539 37948 ft 442 kts 278°
2026-05-06 10:40 40.31681 52.30758 37949 ft 445 kts 277°
2026-05-06 10:41 40.33165 52.22841 37955 ft 448 kts 277°
2026-05-06 10:41 40.34901 52.13624 37962 ft 448 kts 277°
2026-05-06 10:42 40.36148 52.06982 37965 ft 448 kts 277°
2026-05-06 10:42 40.37619 51.99108 37972 ft 448 kts 277°
2026-05-06 10:43 40.39095 51.91172 37969 ft 448 kts 277°
2026-05-06 10:44 40.41298 51.79257 37974 ft 448 kts 277°
2026-05-06 10:44 40.42749 51.71376 37973 ft 448 kts 277°
2026-05-06 10:45 40.44207 51.63418 37976 ft 448 kts 277°
2026-05-06 10:45 40.45656 51.55478 37979 ft 448 kts 277°
2026-05-06 10:46 40.46871 51.47492 37981 ft 443 kts 272°
2026-05-06 10:46 40.47678 51.39480 37979 ft 443 kts 271°
2026-05-06 10:47 40.48415 51.31506 37982 ft 442 kts 271°
2026-05-06 10:47 40.49149 51.23480 37988 ft 443 kts 271°
2026-05-06 10:48 40.49885 51.15455 37991 ft 443 kts 271°
2026-05-06 10:48 40.50619 51.07432 37991 ft 443 kts 271°
2026-05-06 10:49 40.51345 50.99450 37992 ft 443 kts 271°
2026-05-06 10:49 40.52069 50.91422 37989 ft 443 kts 271°
2026-05-06 10:50 40.53012 50.83404 37991 ft 445 kts 274°
2026-05-06 10:50 40.54151 50.75395 37992 ft 446 kts 275°
2026-05-06 10:51 40.55253 50.67426 37993 ft 446 kts 274°
2026-05-06 10:51 40.56313 50.59402 37989 ft 446 kts 274°
2026-05-06 10:52 40.57352 50.51362 37987 ft 446 kts 274°
2026-05-06 10:52 40.58386 50.43319 37985 ft 446 kts 274°
2026-05-06 10:53 40.59408 50.35332 37989 ft 447 kts 274°
2026-05-06 10:53 40.60437 50.27247 37992 ft 447 kts 274°
2026-05-06 10:54 40.61461 50.19165 37994 ft 448 kts 274°
2026-05-06 10:54 40.62481 50.11062 37994 ft 449 kts 274°
2026-05-06 10:55 40.63497 50.02947 37994 ft 449 kts 274°
2026-05-06 10:55 40.64501 49.94878 37994 ft 450 kts 274°
2026-05-06 10:56 40.65508 49.86742 37994 ft 450 kts 274°
2026-05-06 10:56 40.66509 49.78599 37991 ft 451 kts 274°
2026-05-06 10:57 40.67507 49.70437 37984 ft 451 kts 274°
2026-05-06 10:57 40.68500 49.62268 37991 ft 452 kts 274°
2026-05-06 10:58 40.69482 49.54132 37988 ft 453 kts 274°
2026-05-06 10:58 40.70471 49.45923 37986 ft 454 kts 274°
2026-05-06 10:59 40.71447 49.37701 37994 ft 455 kts 274°
2026-05-06 10:59 40.72417 49.29460 38000 ft 456 kts 274°
2026-05-06 11:00 40.73793 49.21292 38276 ft 463 kts 281°
2026-05-06 11:00 40.74746 49.17236 38533 ft 463 kts 282°
2026-05-06 11:00 40.75734 49.13198 38712 ft 463 kts 283°
2026-05-06 11:00 40.76740 49.09159 38868 ft 464 kts 283°
2026-05-06 11:01 40.77749 49.05128 39016 ft 464 kts 283°
2026-05-06 11:01 40.78760 49.01084 39167 ft 464 kts 283°
2026-05-06 11:01 40.79768 48.97031 39304 ft 464 kts 283°
2026-05-06 11:01 40.80770 48.92983 39443 ft 464 kts 283°
2026-05-06 11:02 40.81768 48.88928 39590 ft 464 kts 283°
2026-05-06 11:02 40.82750 48.84931 39731 ft 465 kts 283°
2026-05-06 11:02 40.83743 48.80874 39858 ft 465 kts 283°
2026-05-06 11:02 40.84736 48.76812 39973 ft 466 kts 283°
2026-05-06 11:03 40.85732 48.72732 39997 ft 468 kts 283°
2026-05-06 11:03 40.87726 48.64545 40002 ft 468 kts 282°
2026-05-06 11:04 40.89714 48.56360 40016 ft 468 kts 283°
2026-05-06 11:04 40.91682 48.48223 40017 ft 468 kts 283°
2026-05-06 11:05 40.93659 48.40016 40028 ft 469 kts 283°
2026-05-06 11:05 40.95634 48.31792 40021 ft 469 kts 283°
2026-05-06 11:06 40.97605 48.23563 40025 ft 470 kts 283°
2026-05-06 11:06 40.99574 48.15310 40028 ft 471 kts 283°
2026-05-06 11:07 41.01542 48.07024 40033 ft 472 kts 283°
2026-05-06 11:07 41.03494 47.98780 40046 ft 473 kts 283°
2026-05-06 11:08 41.05458 47.90462 40034 ft 474 kts 283°
2026-05-06 11:08 41.07365 47.82104 40051 ft 474 kts 281°
2026-05-06 11:09 41.09132 47.73688 40045 ft 474 kts 281°
2026-05-06 11:09 41.10889 47.65270 40048 ft 474 kts 281°
2026-05-06 11:10 41.12652 47.56912 40049 ft 474 kts 281°
2026-05-06 11:10 41.14431 47.48503 40056 ft 474 kts 281°
2026-05-06 11:11 41.16205 47.40082 40065 ft 474 kts 281°
2026-05-06 11:11 41.17972 47.31660 40071 ft 473 kts 281°
2026-05-06 11:12 41.19719 47.23305 40083 ft 473 kts 281°
2026-05-06 11:12 41.21466 47.14906 40090 ft 472 kts 281°
2026-05-06 11:13 41.23209 47.06497 40094 ft 472 kts 281°
2026-05-06 11:13 41.24942 46.98100 40102 ft 472 kts 281°
2026-05-06 11:14 41.26672 46.89689 40097 ft 472 kts 281°
2026-05-06 11:14 41.28384 46.81322 40099 ft 472 kts 281°
2026-05-06 11:15 41.30097 46.72893 40101 ft 472 kts 280°
2026-05-06 11:15 41.31385 46.64368 40097 ft 470 kts 276°
2026-05-06 11:16 41.32449 46.55791 40093 ft 470 kts 276°
2026-05-06 11:16 41.33560 46.47267 40090 ft 471 kts 276°
2026-05-06 11:17 41.34732 46.38698 40082 ft 471 kts 277°
2026-05-06 11:17 41.35920 46.30104 40071 ft 472 kts 277°
2026-05-06 11:18 41.37099 46.21515 40063 ft 472 kts 277°
2026-05-06 11:18 41.38269 46.12924 40061 ft 472 kts 277°
2026-05-06 11:19 41.39424 46.04373 40054 ft 472 kts 277°
2026-05-06 11:19 41.40580 45.95773 40049 ft 472 kts 277°
2026-05-06 11:20 41.41732 45.87146 40047 ft 473 kts 277°
2026-05-06 11:20 41.42877 45.78528 40040 ft 473 kts 277°
2026-05-06 11:21 41.44010 45.69950 40035 ft 473 kts 277°
2026-05-06 11:21 41.45142 45.61319 40032 ft 473 kts 277°
2026-05-06 11:22 41.46269 45.52680 40026 ft 473 kts 276°
2026-05-06 11:22 41.47390 45.44038 40022 ft 473 kts 277°
2026-05-06 11:23 41.48505 45.35384 40017 ft 474 kts 277°
2026-05-06 11:23 41.49331 45.26683 40006 ft 472 kts 272°
2026-05-06 11:24 41.49945 45.17971 40018 ft 472 kts 272°
2026-05-06 11:24 41.50585 45.09307 40015 ft 473 kts 273°
2026-05-06 11:25 41.51272 45.00582 40016 ft 473 kts 273°
2026-05-06 11:25 41.51967 44.91868 40019 ft 473 kts 273°
2026-05-06 11:26 41.52660 44.83115 40021 ft 473 kts 273°
2026-05-06 11:26 41.53342 44.74383 40026 ft 473 kts 273°
2026-05-06 11:27 41.54012 44.65706 40017 ft 473 kts 273°
2026-05-06 11:27 41.54681 44.56952 40021 ft 473 kts 273°
2026-05-06 11:28 41.55342 44.48207 40022 ft 473 kts 273°
2026-05-06 11:28 41.55992 44.39523 40019 ft 474 kts 273°
2026-05-06 11:29 41.56640 44.30772 40020 ft 474 kts 273°
2026-05-06 11:29 41.57283 44.22008 40023 ft 474 kts 273°
2026-05-06 11:30 41.57958 44.13243 40026 ft 475 kts 274°
2026-05-06 11:30 41.58654 44.04471 40033 ft 475 kts 274°
2026-05-06 11:31 41.59334 43.95757 40039 ft 475 kts 274°
2026-05-06 11:31 41.59853 43.88982 40049 ft 475 kts 273°
2026-05-06 11:32 41.60518 43.80198 40055 ft 475 kts 274°
2026-05-06 11:32 41.61177 43.71414 40060 ft 476 kts 273°
2026-05-06 11:33 41.61830 43.62615 40069 ft 475 kts 273°
2026-05-06 11:33 41.62470 43.53886 40070 ft 476 kts 273°
2026-05-06 11:34 41.63114 43.45089 40072 ft 476 kts 273°
2026-05-06 11:34 41.63752 43.36271 40073 ft 476 kts 273°
2026-05-06 11:35 41.64380 43.27452 40072 ft 476 kts 273°
2026-05-06 11:35 41.65004 43.18632 40076 ft 477 kts 273°
2026-05-06 11:36 41.65617 43.09880 40070 ft 477 kts 273°
2026-05-06 11:36 41.66229 43.01034 40067 ft 477 kts 273°
2026-05-06 11:37 41.66834 42.92201 40071 ft 477 kts 273°
2026-05-06 11:37 41.66985 42.83350 40077 ft 475 kts 264°
2026-05-06 11:38 41.66364 42.74567 40082 ft 475 kts 262°
2026-05-06 11:38 41.65785 42.67696 40078 ft 475 kts 262°
2026-05-06 11:39 41.65039 42.59040 40093 ft 475 kts 262°
2026-05-06 11:39 41.64291 42.50275 40102 ft 475 kts 262°
2026-05-06 11:40 41.63543 42.41494 40110 ft 475 kts 262°
2026-05-06 11:40 41.62796 42.32780 40119 ft 475 kts 262°
2026-05-06 11:41 41.62038 42.24007 40109 ft 475 kts 262°
2026-05-06 11:41 41.61273 42.15235 40121 ft 476 kts 262°
2026-05-06 11:42 41.60499 42.06459 40131 ft 476 kts 262°
2026-05-06 11:42 41.59718 41.97668 40138 ft 476 kts 262°
2026-05-06 11:43 41.58937 41.88943 40142 ft 476 kts 262°
2026-05-06 11:43 41.58142 41.80167 40166 ft 476 kts 262°
2026-05-06 11:44 41.56937 41.66981 40167 ft 477 kts 262°
2026-05-06 11:44 41.56126 41.58198 40154 ft 477 kts 262°
2026-05-06 11:45 41.55309 41.49419 40157 ft 477 kts 261°
2026-05-06 11:45 41.55161 41.40624 40156 ft 479 kts 271°
2026-05-06 11:46 41.55614 41.31728 40151 ft 480 kts 273°
2026-05-06 11:46 41.56148 41.22841 40151 ft 480 kts 273°
2026-05-06 11:47 41.56668 41.14004 40141 ft 481 kts 273°
2026-05-06 11:47 41.57169 41.05113 40141 ft 481 kts 273°
2026-05-06 11:48 41.57658 40.96191 40138 ft 481 kts 272°
2026-05-06 11:48 41.58139 40.87280 40136 ft 481 kts 272°
2026-05-06 11:49 41.58614 40.78362 40136 ft 482 kts 272°
2026-05-06 11:49 41.59080 40.69482 40130 ft 482 kts 272°
2026-05-06 11:50 41.59543 40.60556 40133 ft 482 kts 272°
2026-05-06 11:50 41.59998 40.51619 40133 ft 482 kts 272°
2026-05-06 11:51 41.60448 40.42668 40132 ft 483 kts 272°
2026-05-06 11:51 41.60887 40.33784 40130 ft 483 kts 272°
2026-05-06 11:52 41.61322 40.24834 40130 ft 483 kts 272°
2026-05-06 11:52 41.61751 40.15877 40129 ft 483 kts 272°
2026-05-06 11:53 41.62173 40.06915 40133 ft 483 kts 272°
2026-05-06 11:53 41.62587 39.97956 40128 ft 483 kts 272°
2026-05-06 11:54 41.62993 39.89043 40132 ft 483 kts 272°
2026-05-06 11:54 41.63394 39.80080 40131 ft 484 kts 272°
2026-05-06 11:55 41.63789 39.71103 40133 ft 484 kts 272°
2026-05-06 11:55 41.64177 39.62118 40133 ft 484 kts 272°
2026-05-06 11:56 41.64559 39.53197 40129 ft 484 kts 272°
2026-05-06 11:56 41.64931 39.44231 40131 ft 484 kts 272°
2026-05-06 11:57 41.65293 39.35257 40131 ft 485 kts 272°
2026-05-06 11:57 41.65652 39.26218 40131 ft 485 kts 272°
2026-05-06 11:58 41.66003 39.17275 40130 ft 485 kts 272°
2026-05-06 11:58 41.66348 39.08273 40128 ft 485 kts 272°
2026-05-06 11:59 41.66687 38.99268 40132 ft 485 kts 272°
2026-05-06 11:59 41.67018 38.90263 40125 ft 485 kts 272°
2026-05-06 12:00 41.67343 38.81255 40123 ft 485 kts 272°
2026-05-06 12:00 41.67660 38.72252 40128 ft 485 kts 272°
2026-05-06 12:01 41.67968 38.63303 40132 ft 485 kts 272°
2026-05-06 12:01 41.68272 38.54281 40132 ft 485 kts 272°
2026-05-06 12:02 41.68568 38.45265 40132 ft 485 kts 272°
2026-05-06 12:02 41.68858 38.36249 40134 ft 485 kts 272°
2026-05-06 12:03 41.69139 38.27292 40130 ft 485 kts 272°
2026-05-06 12:03 41.69413 38.18288 40130 ft 485 kts 271°
2026-05-06 12:04 41.69682 38.09269 40128 ft 485 kts 271°
2026-05-06 12:04 41.69943 38.00249 40134 ft 485 kts 271°
2026-05-06 12:05 41.70196 37.91292 40130 ft 485 kts 271°
2026-05-06 12:05 41.70443 37.82280 40130 ft 485 kts 271°
2026-05-06 12:06 41.70683 37.73257 40129 ft 485 kts 271°
2026-05-06 12:06 41.71667 37.64341 40130 ft 486 kts 286°
2026-05-06 12:07 41.74071 37.55946 40130 ft 487 kts 292°
2026-05-06 12:07 41.76740 37.47620 40131 ft 487 kts 292°
2026-05-06 12:08 41.79432 37.39285 40128 ft 487 kts 292°
2026-05-06 12:08 41.82092 37.30937 40127 ft 487 kts 292°
2026-05-06 12:09 41.84715 37.22634 40126 ft 487 kts 292°
2026-05-06 12:09 41.87349 37.14258 40124 ft 487 kts 292°
2026-05-06 12:10 41.89819 37.05801 40125 ft 487 kts 285°
2026-05-06 12:10 41.90954 36.96868 40124 ft 486 kts 276°
2026-05-06 12:11 41.91595 36.87896 40126 ft 486 kts 275°
2026-05-06 12:11 41.92166 36.78843 40121 ft 487 kts 275°
2026-05-06 12:12 41.92745 36.69798 40122 ft 487 kts 275°
2026-05-06 12:12 41.93337 36.60732 40122 ft 487 kts 275°
2026-05-06 12:13 41.93921 36.51741 40120 ft 487 kts 275°
2026-05-06 12:13 41.94503 36.42683 40121 ft 487 kts 275°
2026-05-06 12:14 41.95077 36.33631 40120 ft 486 kts 275°
2026-05-06 12:14 41.95643 36.24580 40121 ft 486 kts 275°
2026-05-06 12:15 41.96198 36.15583 40118 ft 486 kts 275°
2026-05-06 12:15 41.96750 36.06532 40114 ft 486 kts 275°
2026-05-06 12:16 41.97294 35.97478 40116 ft 486 kts 274°
2026-05-06 12:16 41.97832 35.88409 40115 ft 486 kts 274°
2026-05-06 12:17 41.98362 35.79361 40116 ft 486 kts 274°
2026-05-06 12:17 41.98882 35.70354 40115 ft 486 kts 274°
2026-05-06 12:18 41.99398 35.61293 40113 ft 486 kts 274°
2026-05-06 12:18 41.99907 35.52241 40117 ft 486 kts 274°
2026-05-06 12:19 42.00408 35.43191 40116 ft 486 kts 274°
2026-05-06 12:19 42.00899 35.34202 40114 ft 486 kts 274°
2026-05-06 12:20 42.01387 35.25127 40119 ft 486 kts 274°
2026-05-06 12:20 42.01867 35.16057 40117 ft 486 kts 274°
2026-05-06 12:21 42.02197 35.06984 40120 ft 486 kts 268°
2026-05-06 12:21 42.01851 34.97913 40112 ft 486 kts 266°
2026-05-06 12:22 42.01387 34.88914 40116 ft 486 kts 266°
2026-05-06 12:22 42.00912 34.79861 40115 ft 486 kts 266°
2026-05-06 12:23 42.00469 34.70788 40114 ft 486 kts 267°
2026-05-06 12:23 42.00027 34.61715 40117 ft 486 kts 266°
2026-05-06 12:24 41.99579 34.52706 40114 ft 486 kts 266°
2026-05-06 12:24 41.99119 34.43643 40117 ft 486 kts 266°
2026-05-06 12:25 41.98652 34.34591 40115 ft 486 kts 266°
2026-05-06 12:25 41.98177 34.25533 40118 ft 486 kts 266°
2026-05-06 12:26 41.97695 34.16487 40113 ft 485 kts 266°
2026-05-06 12:26 41.97211 34.07507 40115 ft 485 kts 266°
2026-05-06 12:27 41.96715 33.98455 40115 ft 485 kts 266°
2026-05-06 12:27 41.96212 33.89418 40113 ft 485 kts 266°
2026-05-06 12:28 41.95703 33.80378 40116 ft 485 kts 266°
2026-05-06 12:28 41.95457 33.71408 40116 ft 484 kts 275°
2026-05-06 12:29 41.96667 33.62569 40113 ft 482 kts 284°
2026-05-06 12:29 41.98329 33.53833 40114 ft 482 kts 285°
2026-05-06 12:30 42.00040 33.45130 40116 ft 482 kts 285°
2026-05-06 12:30 42.01717 33.36468 40121 ft 482 kts 285°
2026-05-06 12:31 42.03379 33.27753 40119 ft 481 kts 285°
2026-05-06 12:31 42.05031 33.19020 40120 ft 481 kts 285°
2026-05-06 12:32 42.06676 33.10286 40120 ft 481 kts 285°
2026-05-06 12:32 42.08358 33.01580 40120 ft 481 kts 286°
2026-05-06 12:33 42.10155 32.92902 40118 ft 481 kts 287°
2026-05-06 12:33 42.11941 32.84290 40117 ft 481 kts 287°
2026-05-06 12:34 42.13712 32.75614 40121 ft 480 kts 287°
2026-05-06 12:34 42.15468 32.66925 40121 ft 480 kts 286°
2026-05-06 12:35 42.17215 32.58247 40119 ft 480 kts 287°
2026-05-06 12:35 42.18941 32.49621 40119 ft 480 kts 286°
2026-05-06 12:36 42.20667 32.40931 40118 ft 479 kts 286°
2026-05-06 12:36 42.22387 32.32245 40116 ft 479 kts 286°
2026-05-06 12:37 42.24101 32.23558 40113 ft 479 kts 286°
2026-05-06 12:37 42.25797 32.14919 40116 ft 479 kts 286°
2026-05-06 12:38 42.27489 32.06228 40116 ft 479 kts 286°
2026-05-06 12:38 42.29185 31.97543 40115 ft 478 kts 286°
2026-05-06 12:39 42.30876 31.88856 40117 ft 478 kts 286°
2026-05-06 12:39 42.32548 31.80228 40116 ft 477 kts 286°
2026-05-06 12:40 42.34219 31.71555 40115 ft 477 kts 286°
2026-05-06 12:40 42.35881 31.62893 40115 ft 476 kts 286°
2026-05-06 12:41 42.37538 31.54216 40119 ft 476 kts 286°
2026-05-06 12:41 42.39186 31.45550 40115 ft 476 kts 286°
2026-05-06 12:42 42.40818 31.36926 40122 ft 476 kts 286°
2026-05-06 12:42 42.42452 31.28258 40119 ft 476 kts 286°
2026-05-06 12:43 42.44079 31.19585 40116 ft 475 kts 286°
2026-05-06 12:43 42.45701 31.10902 40119 ft 475 kts 286°
2026-05-06 12:44 42.47310 31.02222 40115 ft 475 kts 286°
2026-05-06 12:44 42.48904 30.93599 40108 ft 475 kts 286°
2026-05-06 12:45 42.50503 30.84906 40121 ft 475 kts 286°
2026-05-06 12:46 42.52888 30.71863 40118 ft 475 kts 286°
2026-05-06 12:46 42.54469 30.63164 40111 ft 475 kts 285°
2026-05-06 12:47 42.56032 30.54525 40114 ft 475 kts 285°
2026-05-06 12:47 42.57600 30.45818 40117 ft 475 kts 285°
2026-05-06 12:48 42.59163 30.37102 40116 ft 475 kts 285°
2026-05-06 12:48 42.60982 30.28495 40115 ft 473 kts 294°
2026-05-06 12:49 42.64249 30.20831 40114 ft 469 kts 307°
2026-05-06 12:49 42.68154 30.13792 40119 ft 470 kts 309°
2026-05-06 12:50 42.72171 30.06799 40113 ft 470 kts 309°
2026-05-06 12:50 42.76180 29.99773 40119 ft 470 kts 309°
2026-05-06 12:51 42.80162 29.92726 40110 ft 470 kts 308°
2026-05-06 12:51 42.84137 29.85653 40118 ft 470 kts 308°
2026-05-06 12:52 42.88073 29.78632 40113 ft 470 kts 308°
2026-05-06 12:52 42.92039 29.71544 40116 ft 469 kts 308°
2026-05-06 12:53 42.95997 29.64455 40117 ft 469 kts 308°
2026-05-06 12:53 42.99950 29.57358 40117 ft 469 kts 308°
2026-05-06 12:54 43.03867 29.50309 40116 ft 470 kts 308°
2026-05-06 12:54 43.07814 29.43187 40118 ft 469 kts 308°
2026-05-06 12:55 43.11754 29.36062 40113 ft 470 kts 308°
2026-05-06 12:55 43.15691 29.28925 40117 ft 470 kts 308°
2026-05-06 12:56 43.19600 29.21822 40115 ft 470 kts 308°
2026-05-06 12:56 43.23530 29.14663 40117 ft 470 kts 308°
2026-05-06 12:57 43.27457 29.07492 40114 ft 470 kts 308°
2026-05-06 12:57 43.30279 29.02328 40113 ft 470 kts 308°
2026-05-06 12:58 43.34198 28.95143 40116 ft 470 kts 308°
2026-05-06 12:58 43.38113 28.87946 40114 ft 470 kts 308°
2026-05-06 12:59 43.42021 28.80744 40113 ft 470 kts 308°
2026-05-06 12:59 43.45901 28.73578 40112 ft 470 kts 308°
2026-05-06 13:00 43.49795 28.66368 40112 ft 470 kts 308°
2026-05-06 13:00 43.54324 28.57959 40113 ft 469 kts 307°
2026-05-06 13:01 43.58207 28.50731 40104 ft 469 kts 307°
2026-05-06 13:01 43.61429 28.44719 40116 ft 469 kts 307°
2026-05-06 13:02 43.65313 28.37456 40100 ft 469 kts 307°
2026-05-06 13:02 43.69185 28.30198 40088 ft 469 kts 307°
2026-05-06 13:03 43.73053 28.22929 40100 ft 469 kts 307°
2026-05-06 13:03 43.76907 28.15668 40093 ft 469 kts 307°
2026-05-06 13:04 43.81310 28.07350 40086 ft 469 kts 307°
2026-05-06 13:04 43.85131 28.00113 40082 ft 468 kts 307°
2026-05-06 13:05 43.88964 27.92836 40074 ft 468 kts 307°
2026-05-06 13:05 43.92796 27.85543 40069 ft 468 kts 307°
2026-05-06 13:06 43.96625 27.78235 40069 ft 468 kts 307°
2026-05-06 13:06 44.00426 27.70964 40069 ft 468 kts 307°
2026-05-06 13:07 44.04239 27.63652 40063 ft 468 kts 307°
2026-05-06 13:07 44.08052 27.56321 40060 ft 468 kts 307°
2026-05-06 13:08 44.11857 27.48986 40058 ft 467 kts 307°
2026-05-06 13:08 44.15634 27.41690 40056 ft 467 kts 307°
2026-05-06 13:09 44.19418 27.34359 40053 ft 466 kts 307°
2026-05-06 13:09 44.23203 27.27007 40052 ft 466 kts 307°
2026-05-06 13:10 44.26976 27.19662 40049 ft 466 kts 306°
2026-05-06 13:10 44.30740 27.12315 40047 ft 466 kts 306°
2026-05-06 13:11 44.34480 27.04997 40025 ft 465 kts 306°
2026-05-06 13:11 44.38234 26.97632 40024 ft 465 kts 306°
2026-05-06 13:12 44.41977 26.90270 40022 ft 465 kts 306°
2026-05-06 13:12 44.45722 26.82886 40022 ft 465 kts 306°
2026-05-06 13:13 44.49440 26.75535 40020 ft 465 kts 306°
2026-05-06 13:13 44.53172 26.68140 40021 ft 465 kts 306°
2026-05-06 13:14 44.56899 26.60734 40018 ft 465 kts 306°
2026-05-06 13:14 44.60234 26.52975 40015 ft 465 kts 297°
2026-05-06 13:15 44.63042 26.44774 40017 ft 466 kts 296°
2026-05-06 13:15 44.65738 26.36585 40017 ft 466 kts 296°
2026-05-06 13:16 44.68446 26.28324 40015 ft 465 kts 296°
2026-05-06 13:16 44.71155 26.20071 40016 ft 465 kts 296°
2026-05-06 13:17 44.73846 26.11871 40016 ft 464 kts 296°
2026-05-06 13:17 44.76543 26.03628 40017 ft 464 kts 296°
2026-05-06 13:18 44.79229 25.95392 40013 ft 463 kts 296°
2026-05-06 13:18 44.81904 25.87161 40009 ft 463 kts 296°
2026-05-06 13:19 44.84577 25.78913 40008 ft 462 kts 295°
2026-05-06 13:19 44.86789 25.72064 40008 ft 461 kts 295°
2026-05-06 13:20 44.89871 25.62497 40005 ft 461 kts 295°
2026-05-06 13:20 44.92066 25.55660 40006 ft 460 kts 295°
2026-05-06 13:21 44.94702 25.47428 40005 ft 460 kts 295°
2026-05-06 13:21 44.97327 25.39200 40006 ft 459 kts 295°
2026-05-06 13:22 44.99952 25.30984 40006 ft 459 kts 296°
2026-05-06 13:22 45.03382 25.21705 40005 ft 458 kts 300°
2026-05-06 13:23 45.05929 25.15161 40007 ft 457 kts 299°
2026-05-06 13:23 45.08954 25.07234 40006 ft 457 kts 299°
2026-05-06 13:24 45.11926 24.99287 40004 ft 457 kts 298°
2026-05-06 13:24 45.14883 24.91313 39997 ft 457 kts 298°
2026-05-06 13:25 45.17810 24.83397 40001 ft 457 kts 298°
2026-05-06 13:25 45.20751 24.75429 39999 ft 456 kts 298°
2026-05-06 13:26 45.23686 24.67454 39999 ft 456 kts 298°
2026-05-06 13:26 45.26615 24.59477 39992 ft 456 kts 298°
2026-05-06 13:27 45.29536 24.51494 39992 ft 455 kts 298°
2026-05-06 13:27 45.32433 24.43556 39988 ft 455 kts 298°
2026-05-06 13:28 45.35341 24.35563 39991 ft 455 kts 298°
2026-05-06 13:28 45.38241 24.27570 39987 ft 455 kts 297°
2026-05-06 13:29 45.41140 24.19554 39983 ft 455 kts 297°
2026-05-06 13:29 45.44029 24.11546 39982 ft 455 kts 297°
2026-05-06 13:30 45.46893 24.03580 39976 ft 455 kts 297°
2026-05-06 13:30 45.49770 23.95559 39977 ft 455 kts 297°
2026-05-06 13:31 45.52639 23.87525 39978 ft 455 kts 297°
2026-05-06 13:31 45.55506 23.79481 39978 ft 455 kts 297°
2026-05-06 13:32 45.58345 23.71489 39980 ft 455 kts 297°
2026-05-06 13:32 45.61200 23.63431 39984 ft 455 kts 296°
2026-05-06 13:33 45.64045 23.55376 39978 ft 454 kts 296°
2026-05-06 13:33 45.66885 23.47310 39969 ft 454 kts 296°
2026-05-06 13:34 45.69698 23.39297 39963 ft 454 kts 296°
2026-05-06 13:34 45.72524 23.31223 39954 ft 454 kts 296°
2026-05-06 13:35 45.75346 23.23137 39956 ft 453 kts 296°
2026-05-06 13:35 45.78157 23.15054 39952 ft 453 kts 296°
2026-05-06 13:36 45.80957 23.06983 39951 ft 453 kts 296°
2026-05-06 13:36 45.83734 22.98950 39952 ft 452 kts 296°
2026-05-06 13:37 45.86521 22.90867 39956 ft 452 kts 296°
2026-05-06 13:37 45.89298 22.82788 39957 ft 452 kts 295°
2026-05-06 13:38 45.92070 22.74699 39957 ft 451 kts 295°
2026-05-06 13:38 45.94830 22.66619 39965 ft 450 kts 295°
2026-05-06 13:39 45.97578 22.58547 39966 ft 450 kts 295°
2026-05-06 13:39 46.00303 22.50522 39966 ft 449 kts 295°
2026-05-06 13:40 46.03037 22.42446 39968 ft 449 kts 295°
2026-05-06 13:40 46.05760 22.34375 39965 ft 448 kts 295°
2026-05-06 13:41 46.08475 22.26302 39963 ft 448 kts 294°
2026-05-06 13:41 46.11167 22.18277 39965 ft 447 kts 294°
2026-05-06 13:42 46.13863 22.10214 39959 ft 447 kts 294°
2026-05-06 13:42 46.16557 22.02132 39961 ft 447 kts 294°
2026-05-06 13:43 46.19240 21.94056 39963 ft 446 kts 294°
2026-05-06 13:43 46.21899 21.86031 39963 ft 446 kts 294°
2026-05-06 13:44 46.24563 21.77960 39960 ft 445 kts 294°
2026-05-06 13:44 46.27213 21.69911 39956 ft 444 kts 293°
2026-05-06 13:45 46.29864 21.61837 39961 ft 443 kts 293°
2026-05-06 13:45 46.33796 21.49809 39961 ft 443 kts 293°
2026-05-06 13:46 46.36418 21.41757 39962 ft 442 kts 293°
2026-05-06 13:46 46.39034 21.33699 39958 ft 441 kts 292°
2026-05-06 13:47 46.41638 21.25653 39956 ft 441 kts 292°
2026-05-06 13:47 46.44222 21.17644 39953 ft 441 kts 292°
2026-05-06 13:48 46.46816 21.09578 39949 ft 441 kts 292°
2026-05-06 13:48 46.49405 21.01503 39944 ft 441 kts 292°
2026-05-06 13:49 46.51988 20.93419 39943 ft 441 kts 292°
2026-05-06 13:49 46.54566 20.85328 39941 ft 441 kts 292°
2026-05-06 13:50 46.57137 20.77231 39937 ft 441 kts 292°
2026-05-06 13:50 46.59683 20.69189 39938 ft 442 kts 292°
2026-05-06 13:51 46.62247 20.61066 39937 ft 442 kts 291°
2026-05-06 13:51 46.64805 20.52931 39937 ft 442 kts 291°
2026-05-06 13:52 46.67357 20.44794 39933 ft 442 kts 291°
2026-05-06 13:52 46.69893 20.36680 39931 ft 443 kts 291°
2026-05-06 13:53 46.72441 20.28501 39932 ft 443 kts 291°
2026-05-06 13:53 46.74984 20.20315 39928 ft 444 kts 291°
2026-05-06 13:54 46.77528 20.12095 39924 ft 444 kts 291°
2026-05-06 13:54 46.80066 20.03870 39922 ft 445 kts 291°
2026-05-06 13:55 46.82583 19.95683 39917 ft 445 kts 291°
2026-05-06 13:55 46.85111 19.87437 39914 ft 445 kts 291°
2026-05-06 13:56 46.87635 19.79177 39913 ft 446 kts 291°
2026-05-06 13:56 46.90160 19.70884 39914 ft 446 kts 291°
2026-05-06 13:57 46.92678 19.62587 39921 ft 446 kts 291°
2026-05-06 13:57 46.95177 19.54327 39905 ft 447 kts 291°
2026-05-06 13:58 46.97686 19.46006 39910 ft 448 kts 291°
2026-05-06 13:58 47.00195 19.37656 39920 ft 448 kts 291°
2026-05-06 13:59 47.02698 19.29295 39916 ft 448 kts 291°
2026-05-06 13:59 47.05203 19.20904 39907 ft 449 kts 290°
2026-05-06 14:00 47.07698 19.12515 39906 ft 449 kts 290°
2026-05-06 14:00 47.10174 19.04163 39904 ft 450 kts 290°
2026-05-06 14:01 47.12665 18.95734 39901 ft 450 kts 290°
2026-05-06 14:01 47.15154 18.87279 39900 ft 451 kts 290°
2026-05-06 14:02 47.17636 18.78822 39896 ft 451 kts 290°
2026-05-06 14:02 47.20099 18.70397 39900 ft 451 kts 290°
2026-05-06 14:03 47.22569 18.61922 39897 ft 452 kts 290°
2026-05-06 14:03 47.24531 18.55170 39896 ft 452 kts 290°
2026-05-06 14:04 47.27001 18.46639 39894 ft 452 kts 290°
2026-05-06 14:04 47.29459 18.38120 39898 ft 453 kts 290°
2026-05-06 14:05 47.31915 18.29580 39894 ft 453 kts 290°
2026-05-06 14:05 47.34353 18.21073 39893 ft 453 kts 290°
2026-05-06 14:06 47.36805 18.12488 39886 ft 454 kts 290°
2026-05-06 14:06 47.39251 18.03892 39878 ft 455 kts 290°
2026-05-06 14:07 47.41693 17.95280 39871 ft 455 kts 289°
2026-05-06 14:07 47.44135 17.86641 39865 ft 456 kts 289°
2026-05-06 14:08 47.46553 17.78049 39864 ft 457 kts 289°
2026-05-06 14:08 47.48990 17.69360 39861 ft 457 kts 289°
2026-05-06 14:09 47.51417 17.60676 39861 ft 458 kts 289°
2026-05-06 14:09 47.53846 17.51954 39861 ft 459 kts 289°
2026-05-06 14:10 47.56256 17.43269 39860 ft 459 kts 289°
2026-05-06 14:10 47.58671 17.34536 39857 ft 459 kts 289°
2026-05-06 14:11 47.61089 17.25758 39854 ft 459 kts 289°
2026-05-06 14:11 47.63492 17.17003 39847 ft 459 kts 289°
2026-05-06 14:12 47.65886 17.08248 39837 ft 458 kts 288°
2026-05-06 14:12 47.68275 16.99479 39843 ft 458 kts 288°
2026-05-06 14:13 47.70670 16.90790 39831 ft 458 kts 289°
2026-05-06 14:13 47.73099 16.82020 39820 ft 458 kts 289°
2026-05-06 14:14 47.75510 16.73265 39816 ft 458 kts 288°
2026-05-06 14:14 47.77909 16.64499 39814 ft 458 kts 288°
2026-05-06 14:15 47.80291 16.55762 39807 ft 458 kts 288°
2026-05-06 14:15 47.82677 16.46976 39801 ft 458 kts 288°
2026-05-06 14:16 47.85061 16.38164 39798 ft 459 kts 288°
2026-05-06 14:16 47.87440 16.29337 39794 ft 460 kts 288°
2026-05-06 14:17 47.89818 16.20479 39788 ft 460 kts 288°
2026-05-06 14:17 47.92175 16.11671 39786 ft 461 kts 288°
2026-05-06 14:18 47.94543 16.02785 39781 ft 462 kts 288°
2026-05-06 14:18 47.96906 15.93887 39780 ft 462 kts 287°
2026-05-06 14:19 47.99268 15.84958 39775 ft 462 kts 287°
2026-05-06 14:19 48.01625 15.76008 39772 ft 462 kts 287°
2026-05-06 14:20 48.03958 15.67121 39766 ft 463 kts 287°
2026-05-06 14:20 48.06312 15.58150 39768 ft 464 kts 287°
2026-05-06 14:21 48.08673 15.49163 39763 ft 464 kts 287°
2026-05-06 14:21 48.11016 15.40215 39762 ft 465 kts 287°
2026-05-06 14:22 48.13364 15.31201 39761 ft 465 kts 287°
2026-05-06 14:22 48.15707 15.22169 39755 ft 465 kts 287°
2026-05-06 14:23 48.18040 15.13140 39753 ft 465 kts 287°
2026-05-06 14:23 48.20366 15.04101 39753 ft 464 kts 287°
2026-05-06 14:24 48.22680 14.95076 39748 ft 464 kts 287°
2026-05-06 14:24 48.24993 14.86016 39746 ft 464 kts 287°
2026-05-06 14:25 48.27276 14.77037 39749 ft 464 kts 287°
2026-05-06 14:25 48.29567 14.67991 39747 ft 464 kts 286°
2026-05-06 14:26 48.31852 14.58933 39739 ft 464 kts 286°
2026-05-06 14:26 48.34118 14.49912 39740 ft 464 kts 286°
2026-05-06 14:27 48.36389 14.40842 39730 ft 464 kts 286°
2026-05-06 14:27 48.38656 14.31746 39727 ft 465 kts 286°
2026-05-06 14:28 48.40922 14.22618 39732 ft 466 kts 286°
2026-05-06 14:28 48.43178 14.13492 39729 ft 466 kts 286°
2026-05-06 14:29 48.45434 14.04328 39736 ft 467 kts 286°
2026-05-06 14:29 48.47672 13.95198 39740 ft 467 kts 286°
2026-05-06 14:30 48.49914 13.86016 39743 ft 468 kts 286°
2026-05-06 14:30 48.52159 13.76783 39741 ft 468 kts 286°
2026-05-06 14:31 48.54393 13.67562 39744 ft 469 kts 286°
2026-05-06 14:31 48.56626 13.58302 39744 ft 469 kts 286°
2026-05-06 14:32 48.58317 13.51268 39744 ft 470 kts 286°
2026-05-06 14:32 48.58894 13.48863 39741 ft 470 kts 286°
2026-05-06 14:33 48.61138 13.39576 39733 ft 470 kts 286°
2026-05-06 14:33 48.63369 13.30301 39741 ft 470 kts 286°
2026-05-06 14:34 48.65592 13.21015 39745 ft 470 kts 286°
2026-05-06 14:34 48.67807 13.11719 39769 ft 470 kts 286°
2026-05-06 14:35 48.68893 13.07145 39894 ft 471 kts 286°
2026-05-06 14:35 48.70007 13.02467 40101 ft 470 kts 286°
2026-05-06 14:35 48.71105 12.97822 40296 ft 470 kts 286°
2026-05-06 14:35 48.72201 12.93159 40459 ft 470 kts 285°
2026-05-06 14:36 48.73297 12.88476 40625 ft 470 kts 286°
2026-05-06 14:36 48.74387 12.83818 40731 ft 472 kts 285°
2026-05-06 14:36 48.76579 12.74425 40749 ft 472 kts 285°
2026-05-06 14:37 48.78747 12.65111 40747 ft 472 kts 285°
2026-05-06 14:37 48.80928 12.55721 40749 ft 472 kts 285°
2026-05-06 14:38 48.83088 12.46327 40745 ft 472 kts 285°
2026-05-06 14:38 48.85246 12.36906 40747 ft 472 kts 285°
2026-05-06 14:39 48.87398 12.27479 40751 ft 473 kts 285°
2026-05-06 14:39 48.89525 12.18107 40754 ft 472 kts 285°
2026-05-06 14:40 48.91569 12.08568 40751 ft 472 kts 284°
2026-05-06 14:40 48.93553 11.99114 40761 ft 472 kts 284°
2026-05-06 14:41 48.95556 11.89610 40763 ft 472 kts 284°
2026-05-06 14:41 48.97564 11.80100 40764 ft 472 kts 284°
2026-05-06 14:42 48.99565 11.70591 40756 ft 472 kts 284°
2026-05-06 14:42 49.01548 11.61118 40770 ft 472 kts 284°
2026-05-06 14:43 49.03535 11.51580 40763 ft 473 kts 284°
2026-05-06 14:43 49.05516 11.42024 40764 ft 473 kts 284°
2026-05-06 14:44 49.07492 11.32450 40763 ft 473 kts 283°
2026-05-06 14:45 49.10438 11.18086 40762 ft 473 kts 283°
2026-05-06 14:45 49.12382 11.08546 40762 ft 474 kts 283°
2026-05-06 14:46 49.14331 10.98940 40772 ft 474 kts 283°
2026-05-06 14:46 49.16278 10.89297 40784 ft 475 kts 283°
2026-05-06 14:47 49.18216 10.79650 40797 ft 475 kts 283°
2026-05-06 14:47 49.20132 10.70051 40804 ft 475 kts 283°
2026-05-06 14:48 49.21904 10.60328 40808 ft 475 kts 281°
2026-05-06 14:48 49.23592 10.50565 40808 ft 475 kts 281°
2026-05-06 14:49 49.25293 10.40812 40805 ft 475 kts 281°
2026-05-06 14:49 49.27012 10.31031 40801 ft 475 kts 281°
2026-05-06 14:50 49.28717 10.21317 40801 ft 476 kts 281°
2026-05-06 14:50 49.30425 10.11528 40804 ft 476 kts 281°
2026-05-06 14:51 49.32125 10.01723 40802 ft 476 kts 281°
2026-05-06 14:51 49.33815 9.91915 40803 ft 476 kts 281°
2026-05-06 14:52 49.35500 9.82084 40801 ft 476 kts 281°
2026-05-06 14:52 49.37177 9.72245 40801 ft 476 kts 281°
2026-05-06 14:53 49.38832 9.62480 40797 ft 476 kts 281°
2026-05-06 14:53 49.40490 9.52644 40791 ft 476 kts 281°
2026-05-06 14:54 49.42139 9.42797 40791 ft 476 kts 281°
2026-05-06 14:54 49.43780 9.32945 40788 ft 476 kts 281°
2026-05-06 14:55 49.45413 9.23085 40791 ft 477 kts 281°
2026-05-06 14:55 49.47029 9.13266 40788 ft 477 kts 281°
2026-05-06 14:56 49.48470 9.03330 40787 ft 477 kts 279°
2026-05-06 14:56 49.49798 8.93321 40782 ft 477 kts 279°
2026-05-06 14:57 49.51142 8.83336 40785 ft 478 kts 279°
2026-05-06 14:57 49.52501 8.73383 40780 ft 478 kts 279°
2026-05-06 14:58 49.53870 8.63364 40777 ft 479 kts 279°
2026-05-06 14:58 49.55229 8.53331 40774 ft 479 kts 279°
2026-05-06 14:59 49.56583 8.43259 40777 ft 479 kts 279°
2026-05-06 14:59 49.57925 8.33204 40775 ft 480 kts 279°
2026-05-06 15:00 49.59251 8.23189 40778 ft 480 kts 279°
2026-05-06 15:00 49.60579 8.13099 40781 ft 480 kts 278°
2026-05-06 15:01 49.61899 8.02995 40789 ft 480 kts 278°
2026-05-06 15:01 49.63209 7.92889 40784 ft 480 kts 278°
2026-05-06 15:02 49.64509 7.82789 40786 ft 481 kts 278°
2026-05-06 15:02 49.65796 7.72722 40786 ft 481 kts 278°
2026-05-06 15:03 49.67079 7.62606 40785 ft 481 kts 278°
2026-05-06 15:03 49.68357 7.52459 40789 ft 481 kts 278°
2026-05-06 15:04 49.69622 7.42338 40795 ft 481 kts 278°
2026-05-06 15:04 49.70885 7.32167 40799 ft 481 kts 278°
2026-05-06 15:05 49.72126 7.22082 40801 ft 481 kts 278°
2026-05-06 15:05 49.73367 7.11931 40802 ft 481 kts 278°
2026-05-06 15:06 49.74599 7.01777 40792 ft 481 kts 278°
2026-05-06 15:06 49.75818 6.91636 40795 ft 481 kts 278°
2026-05-06 15:07 49.77024 6.81535 40810 ft 481 kts 278°
2026-05-06 15:07 49.78230 6.71348 40814 ft 480 kts 278°
2026-05-06 15:08 49.79425 6.61177 40811 ft 480 kts 278°
2026-05-06 15:08 49.80611 6.51007 40815 ft 480 kts 278°
2026-05-06 15:09 49.81118 6.40782 40815 ft 475 kts 264°
2026-05-06 15:09 49.80105 6.30792 40829 ft 473 kts 257°
2026-05-06 15:10 49.78773 6.20809 40827 ft 474 kts 256°
2026-05-06 15:10 49.77405 6.10837 40831 ft 474 kts 256°
2026-05-06 15:11 49.76048 6.00846 40585 ft 475 kts 256°
2026-05-06 15:11 49.75371 5.95842 40101 ft 476 kts 256°
2026-05-06 15:11 49.74693 5.90842 39430 ft 478 kts 257°
2026-05-06 15:11 49.73842 5.85870 38761 ft 477 kts 250°
2026-05-06 15:12 49.72798 5.81069 38080 ft 477 kts 249°
2026-05-06 15:12 49.71701 5.76230 37395 ft 475 kts 249°
2026-05-06 15:12 49.70591 5.71433 36734 ft 474 kts 249°
2026-05-06 15:12 49.69473 5.66657 36120 ft 473 kts 249°
2026-05-06 15:13 49.68350 5.61879 35495 ft 474 kts 248°
2026-05-06 15:13 49.67219 5.57070 34890 ft 476 kts 249°
2026-05-06 15:13 49.66092 5.52284 34300 ft 477 kts 249°
2026-05-06 15:13 49.64969 5.47512 33703 ft 478 kts 249°
2026-05-06 15:14 49.63833 5.42691 33014 ft 479 kts 249°
2026-05-06 15:14 49.62694 5.37865 32331 ft 480 kts 249°
2026-05-06 15:14 49.61569 5.33014 31660 ft 481 kts 249°
2026-05-06 15:14 49.60503 5.28111 31020 ft 482 kts 250°
2026-05-06 15:15 49.59470 5.23197 30399 ft 484 kts 251°
2026-05-06 15:15 49.58430 5.18252 29755 ft 485 kts 250°
2026-05-06 15:15 49.57313 5.13347 29032 ft 485 kts 249°
2026-05-06 15:15 49.56173 5.08475 28311 ft 481 kts 249°
2026-05-06 15:16 49.55044 5.03656 27643 ft 475 kts 249°
2026-05-06 15:16 49.53942 4.98950 26988 ft 470 kts 249°
2026-05-06 15:16 49.52842 4.94253 26342 ft 464 kts 249°
2026-05-06 15:16 49.51749 4.89600 25701 ft 459 kts 249°
2026-05-06 15:17 49.50673 4.85023 25084 ft 454 kts 249°
2026-05-06 15:17 49.49962 4.82004 24697 ft 451 kts 250°
2026-05-06 15:17 49.48543 4.75987 23900 ft 445 kts 250°
2026-05-06 15:17 49.47489 4.71531 23286 ft 440 kts 250°
2026-05-06 15:18 49.46796 4.68604 22823 ft 437 kts 250°
2026-05-06 15:18 49.45412 4.62776 21917 ft 431 kts 250°
2026-05-06 15:18 49.44399 4.58520 21267 ft 427 kts 250°
2026-05-06 15:18 49.43385 4.54265 20627 ft 423 kts 250°
2026-05-06 15:19 49.42376 4.50044 20005 ft 420 kts 250°
2026-05-06 15:19 49.41697 4.47207 19600 ft 418 kts 250°
2026-05-06 15:19 49.40713 4.43100 18992 ft 415 kts 250°
2026-05-06 15:19 49.39383 4.37559 18204 ft 412 kts 250°
2026-05-06 15:20 49.38728 4.34840 17756 ft 410 kts 250°
2026-05-06 15:20 49.37744 4.30754 17088 ft 407 kts 250°
2026-05-06 15:20 49.36762 4.26687 16440 ft 404 kts 250°
2026-05-06 15:20 49.35476 4.21371 15624 ft 399 kts 250°
2026-05-06 15:21 49.34518 4.17422 15165 ft 395 kts 250°
2026-05-06 15:21 49.33866 4.14738 14907 ft 395 kts 250°
2026-05-06 15:21 49.32912 4.10810 14542 ft 394 kts 250°
2026-05-06 15:21 49.31965 4.06920 14182 ft 393 kts 250°
2026-05-06 15:22 49.31009 4.03004 13827 ft 393 kts 250°
2026-05-06 15:22 49.30052 3.99087 13439 ft 392 kts 250°
2026-05-06 15:22 49.29097 3.95185 13031 ft 390 kts 250°
2026-05-06 15:22 49.28147 3.91309 12641 ft 387 kts 250°
2026-05-06 15:23 49.27203 3.87471 12256 ft 384 kts 250°
2026-05-06 15:23 49.26264 3.83659 11876 ft 381 kts 250°
2026-05-06 15:23 49.25328 3.79862 11487 ft 379 kts 250°
2026-05-06 15:23 49.24414 3.76161 11121 ft 373 kts 250°
2026-05-06 15:24 49.23509 3.72509 10762 ft 361 kts 250°
2026-05-06 15:24 49.22629 3.68960 10403 ft 351 kts 249°
2026-05-06 15:24 49.21779 3.65535 10059 ft 341 kts 250°
2026-05-06 15:24 49.20949 3.62197 9696 ft 331 kts 250°
2026-05-06 15:25 49.20139 3.58950 9308 ft 323 kts 250°
2026-05-06 15:25 49.19348 3.55783 8991 ft 314 kts 250°
2026-05-06 15:25 49.18582 3.52721 8728 ft 303 kts 250°
2026-05-06 15:25 49.17843 3.49764 8485 ft 293 kts 250°
2026-05-06 15:26 49.17123 3.46891 8229 ft 285 kts 250°
2026-05-06 15:26 49.16435 3.44143 7996 ft 278 kts 251°
2026-05-06 15:26 49.15748 3.41404 7753 ft 275 kts 251°
2026-05-06 15:26 49.15062 3.38669 7500 ft 276 kts 251°
2026-05-06 15:27 49.14376 3.35938 7253 ft 276 kts 251°
2026-05-06 15:27 49.13690 3.33212 7007 ft 275 kts 251°
2026-05-06 15:27 49.13003 3.30488 6761 ft 274 kts 251°
2026-05-06 15:27 49.12317 3.27771 6514 ft 273 kts 251°
2026-05-06 15:28 49.11634 3.25071 6264 ft 272 kts 251°
2026-05-06 15:28 49.10960 3.22409 6013 ft 271 kts 251°
2026-05-06 15:28 49.10273 3.19696 5740 ft 270 kts 251°
2026-05-06 15:28 49.09606 3.17062 5495 ft 269 kts 251°
2026-05-06 15:29 49.08933 3.14411 5235 ft 267 kts 251°
2026-05-06 15:29 49.08269 3.11806 5033 ft 258 kts 251°
2026-05-06 15:29 49.07635 3.09323 5003 ft 244 kts 251°
2026-05-06 15:29 49.07039 3.06993 5007 ft 228 kts 251°
2026-05-06 15:30 49.06480 3.04810 5011 ft 213 kts 252°
2026-05-06 15:30 49.05958 3.02766 5011 ft 202 kts 252°
2026-05-06 15:30 49.05452 3.00774 5015 ft 201 kts 252°
2026-05-06 15:30 49.05225 2.99692 5011 ft 201 kts 259°
2026-05-06 15:31 49.05024 2.98127 5008 ft 199 kts 265°
2026-05-06 15:31 49.04912 2.96607 5006 ft 199 kts 268°
2026-05-06 15:31 49.04774 2.94502 5006 ft 199 kts 268°
2026-05-06 15:32 49.04538 2.90304 4928 ft 199 kts 268°
2026-05-06 15:32 49.04401 2.88202 4706 ft 199 kts 268°
2026-05-06 15:32 49.04285 2.86102 4408 ft 200 kts 269°
2026-05-06 15:32 49.04177 2.83998 4140 ft 199 kts 268°
2026-05-06 15:33 49.04060 2.81889 3824 ft 201 kts 268°
2026-05-06 15:33 49.03946 2.79769 3523 ft 201 kts 268°
2026-05-06 15:33 49.03834 2.77684 3252 ft 198 kts 268°
2026-05-06 15:33 49.03721 2.75610 2991 ft 194 kts 268°
2026-05-06 15:34 49.03612 2.73584 2724 ft 191 kts 268°
2026-05-06 15:34 49.03504 2.71581 2469 ft 187 kts 268°
2026-05-06 15:34 49.03398 2.69636 2213 ft 181 kts 269°
2026-05-06 15:34 49.03298 2.67790 1960 ft 169 kts 269°
2026-05-06 15:35 49.03205 2.66063 1748 ft 158 kts 269°
2026-05-06 15:35 49.03118 2.64458 1529 ft 146 kts 269°
2026-05-06 15:35 49.03038 2.62972 1344 ft 136 kts 269°
2026-05-06 15:35 49.02963 2.61575 1141 ft 132 kts 269°
2026-05-06 15:36 49.02888 2.60182 965 ft 132 kts 269°
2026-05-06 15:36 49.02814 2.58796 781 ft 132 kts 269°
2026-05-06 15:36 49.02744 2.57397 633 ft 132 kts 269°
2026-05-06 15:36 49.02652 2.56001 471 ft 133 kts 268°
2026-05-06 15:37 49.02557 2.54618 363 ft 130 kts 269°
2026-05-06 15:37 49.02532 2.53530 362 ft 66 kts 264°
2026-05-06 15:37 49.02507 2.53095 366 ft 34 kts 265°
2026-05-06 15:37 49.02464 2.52783 365 ft 26 kts 239°
2026-05-06 15:38 49.02381 2.52694 367 ft 11 kts 193°
2026-05-06 15:38 49.02371 2.52693 366 ft 0 kts 185°
2026-05-06 15:41 49.02360 2.52692 366 ft 4 kts 185°
2026-05-06 15:41 49.02324 2.52687 367 ft 7 kts 185°
2026-05-06 15:42 49.02268 2.52692 366 ft 9 kts 173°
2026-05-06 15:42 49.02249 2.52697 364 ft 0 kts 171°
2026-05-06 15:43 49.02246 2.52698 365 ft 1 kts 171°
2026-05-06 15:43 49.02223 2.52703 368 ft 6 kts 171°
2026-05-06 15:43 49.02166 2.52711 362 ft 10 kts 175°
2026-05-06 15:44 49.02083 2.52722 365 ft 14 kts 175°
2026-05-06 15:44 49.01975 2.52735 367 ft 17 kts 175°
2026-05-06 15:44 49.01845 2.52752 365 ft 20 kts 175°
2026-05-06 15:44 49.01706 2.52806 365 ft 21 kts 141°
2026-05-06 15:45 49.01660 2.53013 363 ft 14 kts 87°
2026-05-06 15:45 49.01661 2.53057 360 ft 5 kts 86°
2026-05-06 15:45 49.01664 2.53126 360 ft 8 kts 86°
2026-05-06 15:45 49.01668 2.53233 360 ft 12 kts 86°
2026-05-06 15:46 49.01674 2.53372 367 ft 15 kts 86°
2026-05-06 15:46 49.01644 2.53546 362 ft 18 kts 138°
2026-05-06 15:46 49.01554 2.53611 357 ft 12 kts 178°
2026-05-06 15:46 49.01466 2.53610 358 ft 14 kts 181°
2026-05-06 15:47 49.01366 2.53620 362 ft 15 kts 170°
2026-05-06 15:47 49.01261 2.53677 364 ft 17 kts 154°
2026-05-06 15:47 49.01183 2.53799 364 ft 17 kts 112°
2026-05-06 15:47 49.01178 2.53954 366 ft 14 kts 88°
2026-05-06 15:48 49.01186 2.54121 362 ft 17 kts 84°
2026-05-06 15:48 49.01198 2.54297 368 ft 12 kts 84°
2026-05-06 15:48 49.01205 2.54405 365 ft 11 kts 84°
2026-05-06 15:48 49.01209 2.54467 365 ft 1 kts 84°
2026-05-06 15:49 49.01210 2.54500 367 ft 5 kts 86°
2026-05-06 15:49 49.01224 2.54538 370 ft 4 kts 36°
2026-05-06 15:49 49.01255 2.54566 367 ft 6 kts 24°
2026-05-06 15:49 49.01272 2.54564 368 ft 1 kts 353°
2026-05-06 15:50 49.01284 2.54561 365 ft 4 kts 352°
2026-05-06 15:50 49.01293 2.54559 364 ft 1 kts 352°
2026-05-06 15:50 49.01296 2.54559 364 ft 0 kts 352°